Regional Weather Roundup
Issued by NWS State College, PA

Home | Current Version | Previous Version | Text Only | Print | Product List | Glossary Off
Versions: 1 2 3 4 5 6 7 8 9 10 11 12 13 14 15 16 17 18 19 20 21 22 23 24 25 26 27 28 29 30 31 32 33 34 35 36 37 38 39 40 41 42 43 44 45 46 47 48 49 50

961
ASUS41 KCTP 211703
RWRCTP

REGIONAL WEATHER ROUNDUP
NATIONAL WEATHER SERVICE STATE COLLEGE PA
1200 PM EST TUE FEB 21 2017

Note: "fair" indicates few or no clouds below 12,000 feet with no
significant weather and/or obstructions to visibility.

* = STATION THAT DOES NOT REPORT PRECIPITATION /E.G. RAIN...SNOW...ETC/
    THUNDER OR FOG.

PAZ002>004-007>009-013>016-020>023-029>032-211800-
WESTERN PENNSYLVANIA

CITY           SKY/WX    TMP DP  RH WIND       PRES   REMARKS
ERIE           CLOUDY    58  34  40 S17       29.98F
MEADVILLE      CLOUDY    54  33  45 S9        30.01F
FRANKLIN*      CLOUDY    52  28  40 S10       30.05F
NEW CASTLE     FAIR      58  36  43 VRB6      30.04F
BEAVER COUNTY  NOT AVBL
BUTLER*        CLOUDY    57  36  44 S7        30.07F
PITTSBURGH INT CLOUDY    60  37  42 S3        30.05F
PITTSBURGH     PTSUNNY   61  34  36 S8        30.06F
INDIANA*       SUNNY     54  32  43 S13       30.12F
LATROBE        NOT AVBL
WASHINGTON CO* CLOUDY    64  39  39 SW10      30.08F
$$

PAZ004>006-010>012-017>019-024>028-033>037-041-042-045-046-049>053-211800-
CENTRAL PENNSYLVANIA

CITY           SKY/WX    TMP DP  RH WIND       PRES   REMARKS
BRADFORD       CLOUDY    47  23  38 S9        30.06F
DUBOIS         CLOUDY    49  24  37 SE10      30.08F
CLEARFIELD       N/A    N/A N/A N/A MISG      30.13F
JOHNSTOWN      CLOUDY    45  27  49 S13       30.12S
ALTOONA        CLOUDY    48  27  44 S9        30.18F
STATE COLLEGE  SUNNY     45  19  36 S14       30.19F
WILLIAMSPORT   MOSUNNY   44  15  31 SE15G22   30.22F
SELINSGROVE    PTSUNNY   45  20  36 S12       30.25F
FT INDIANTOWN  CLOUDY    45  19  36 S5        30.28F
CAPITAL CITY   MOSUNNY   48  20  32 E10       30.27F
HARRISBURG     CLOUDY    48  23  37 SE10      30.27F
YORK           CLOUDY    47  24  40 S6        30.26F
$$

PAZ038>040-043-044-047-048-054-055-060>062-067>071-211800-
EASTERN PENNSYLVANIA

CITY           SKY/WX    TMP DP  RH WIND       PRES   REMARKS
SCRANTON       CLOUDY    44  17  33 S8        30.23F
MOUNT POCONO   MOSUNNY   35  23  61 S12       30.23F
ALLENTOWN      MOSUNNY   45  26  47 SW6       30.30F
QUAKERTOWN*    CLOUDY    45  28  53 S8        30.31F
READING        CLOUDY    45  27  49 SE7       30.29F
LANCASTER      CLOUDY    46  27  47 S10       30.29F
COATESVILLE    CLOUDY    45  28  53 S6G15     30.30F
POTTSTOWN      PTSUNNY   44  27  51 VRB6      30.32F
BLUE BELL      PTSUNNY   45  30  57 SE7       30.31F
DOYLESTOWN     MOSUNNY   47  29  49 SW8       30.31F
WILLOW GROVE   NOT AVBL
NORTH PHILA    PTSUNNY   49  29  46 S7        30.34F
PHILADELPHIA   CLOUDY    48  28  46 SW9       30.33F
$$




USA.gov is the U.S. government's official web portal to all federal, state and local government web resources and services.